Miscellaneous Local Product
Issued by NWS Hastings, NE

Home | Current Version | Previous Version | Text Only | Print | Product List | Glossary Off
Versions: 1 2 3 4 5 6 7 8 9 10 11 12 13 14 15 16 17 18 19 20 21 22 23 24 25 26 27 28 29 30 31 32 33 34 35 36 37 38 39 40 41 42 43 44 45 46 47 48 49 50

299
AXUS43 KGID 202102
MISGRI

GID CWA HOURLY WEATHER ROUNDUP
NATIONAL WEATHER SERVICE HASTINGS NE
300 PM CST MON FEB 20 2017

NOTE: "FAIR" INDICATES FEW OR NO CLOUDS BELOW 12,000 FEET WITH NO
SIGNIFICANT WEATHER AND/OR OBSTRUCTIONS TO VISIBILITY.

...SOUTH CENTRAL NEBRASKA...

CITY           SKY/WX    TMP DP  RH WIND       PRES   REMARKS
GRAND ISLAND   SUNNY     63  42  46 N17G25    29.79S
HASTINGS       SUNNY     64  41  42 N20       29.80S
KEARNEY        SUNNY     61  36  39 N25G31    29.84R
ORD            SUNNY     61  36  39 NW23G32   29.80S
YORK           SUNNY     63  41  45 N13G30    29.77S
AURORA         SUNNY     64  42  45 N20       29.78R
LEXINGTON      SUNNY     62  33  33 N24G30    29.85R
HOLDREGE       SUNNY     60  34  37 N18G30    29.85R
HEBRON         MOSUNNY   66  42  42 NW14      29.76F

...NEBRASKA PANHANDLE...

CITY           SKY/WX    TMP DP  RH WIND       PRES   REMARKS
CHADRON        SUNNY     61  18  18 W10       29.87F
ALLIANCE       SUNNY     60  12  15 W16G25    29.90R
SCOTTSBLUFF    SUNNY     62  17  17 W17G29    29.91F
SIDNEY         SUNNY     60  12  15 NW21G28   29.95S

...WESTERN AND NORTH CENTRAL NEBRASKA...

CITY           SKY/WX    TMP DP  RH WIND       PRES   REMARKS
VALENTINE      SUNNY     60  27  28 NW17G26   29.83R
AINSWORTH      SUNNY     59  33  36 NW15G22   29.83R
ONEILL         MOSUNNY   59  40  50 NW23G30   29.81S
BROKEN BOW     SUNNY     60  34  37 N25G36    29.83S
IMPERIAL       SUNNY     62  20  19 N21G30    29.91R
NORTH PLATTE   SUNNY     64  28  25 NW15G29   29.86S
MCCOOK         SUNNY     64  33  31 N20G31    29.86S

...EASTERN NEBRASKA...

CITY           SKY/WX    TMP DP  RH WIND       PRES   REMARKS
NORFOLK        SUNNY     60  41  49 NW14      29.76S
SO SIOUX CITY  CLOUDY    55  44  66 NW16      29.75R
TEKAMAH        CLOUDY    60  55  83 SW12      29.75R
COLUMBUS       PTSUNNY   61  45  55 N17G24    29.78R
ALBION         SUNNY     62  42  47 NW23G29   29.78R
OMAHA EPPLEY   CLOUDY    61  55  81 SW6       29.75R
OFFUTT AFB     PTSUNNY   63  57  82 S5        29.76R
MILLARD        CLOUDY    63  58  85 CALM      29.75S
LINCOLN        CLOUDY    64  51  62 W14       29.76F
NEBRASKA CITY  CLOUDY    60  57  89 SW9       29.77R
BEATRICE       CLOUDY    62  53  72 W10       29.76S
FALLS CITY     CLOUDY    63  56  78 S7        29.77S

...NORTHERN KANSAS...

CITY           SKY/WX    TMP DP  RH WIND       PRES   REMARKS
GOODLAND       SUNNY     63  20  19 N23G33    29.92S
HILL CITY      SUNNY     66  35  31 N22G31    29.86R
NORTON         PTCLDY    64  28  25 N18G30    29.85R
SMITH CENTER   SUNNY     66  37  34 N18G29    29.80R
HAYS           MOSUNNY   66  39  37 NW23      29.82R
RUSSELL        SUNNY     69  34  27 NW20G26   29.79R
CONCORDIA      PTSUNNY   68  43  40 NW14G20   29.76S
SALINA         MOSUNNY   71  40  32 NW10      29.79R
TOPEKA         CLOUDY    64  54  69 S14       29.81R



USA.gov is the U.S. government's official web portal to all federal, state and local government web resources and services.